EW5657 Weather Reports


Display with metric or nautical units.
time (UTC)temp
F
wind
direction
speed
MPH
gust
MPH
rain 1hr
in
rain 24hr
in
rain mn
in
humidity
%
barometer
mb
20260506190406 46 262 1.0 8.0 0.07 0.28 0.07 88 1019.9
20260506185908 46 273 2.0 10.0 0.07 0.28 0.07 87 1020.1
20260506185409 46 273 3.0 11.0 0.07 0.28 0.07 87 1020.0
20260506184905 46 222 2.0 11.0 0.06 0.27 0.06 88 1020.1
20260506184404 46 208 2.0 11.0 0.06 0.27 0.06 87 1020.0
20260506183907 45 219 2.0 13.0 0.06 0.27 0.06 86 1019.9
20260506183410 46 241 6.0 20.0 0.05 0.26 0.06 84 1020.2
20260506183405 45 220 4.0 15.0 0.06 0.27 0.06 85 1020.2
20260506182407 46 206 5.0 20.0 0.04 0.25 0.05 84 1020.5
20260506181904 47 237 3.0 15.0 0.02 0.24 0.03 82 1020.2
20260506181406 47 175 2.0 9.0 0.01 0.22 0.01 81 1020.2
20260506180904 47 276 3.0 10.0 0.00 0.21 0.00 80 1020.0
20260506180404 47 260 4.0 13.0 0.00 0.21 0.00 79 1019.6
20260506175903 47 353 3.0 13.0 0.00 0.21 0.00 80 1019.5
20260506175402 47 340 2.0 11.0 0.00 0.21 0.00 80 1019.4
20260506174904 47 264 2.0 11.0 0.00 0.21 0.00 80 1019.2
20260506174403 47 247 2.0 9.0 0.00 0.21 0.00 81 1019.3
20260506173904 47 229 2.0 9.0 0.00 0.21 0.00 81 1019.2
20260506173402 47 261 2.0 10.0 0.00 0.21 0.00 80 1019.0
20260506172902 47 312 3.0 10.0 0.00 0.21 0.00 80 1019.3
20260506172404 47 307 3.0 9.0 0.00 0.21 0.00 79 1019.5
20260506171907 47 281 2.0 9.0 0.00 0.21 0.00 78 1019.8
20260506171901 47 265 2.0 7.0 0.00 0.21 0.00 79 1019.7
20260506170909 47 232 4.0 17.0 0.00 0.21 0.00 77 1019.9
20260506170901 47 250 3.0 17.0 0.00 0.21 0.00 78 1019.8
20260506165908 48 253 3.0 18.0 0.00 0.21 0.00 78 1019.9
20260506165859 47 96 3.0 14.0 0.00 0.21 0.00 77 1019.9
20260506165358 48 279 3.0 10.0 0.00 0.21 0.00 77 1019.9
20260506165036 48 262 2.0 8.0 0.00 0.21 0.00 77 1019.8
20260506165030 48 276 3.0 18.0 0.00 0.21 0.00 77 1019.8
20260506164026 48 240 3.0 7.0 0.00 0.21 0.00 76 1019.6
20260506162858 48 256 3.0 11.0 0.00 0.21 0.00 75 1019.6
20260506162357 49 293 3.0 12.0 0.00 0.21 0.00 75 1019.5
20260506161903 49 248 3.0 9.0 0.00 0.21 0.00 76 1019.3
20260506161857 49 280 2.0 12.0 0.00 0.21 0.00 75 1019.3
20260506161524 49 303 3.0 12.0 0.00 0.21 0.00 75 1019.3
20260506161025 49 249 3.0 13.0 0.00 0.21 0.00 76 1019.2
20260506160357 49 299 4.0 12.0 0.00 0.21 0.00 76 1019.2
20260506155356 49 231 3.0 13.0 0.00 0.21 0.00 76 1019.3
20260506154857 49 215 3.0 13.0 0.00 0.21 0.00 76 1019.4
20260506154354 49 207 3.0 13.0 0.00 0.21 0.00 77 1019.5
20260506153856 48 185 3.0 11.0 0.00 0.21 0.00 76 1019.6
20260506153402 49 226 3.0 9.0 0.00 0.21 0.00 76 1019.6
20260506153356 49 250 3.0 11.0 0.00 0.21 0.00 77 1019.6
20260506152354 49 298 2.0 9.0 0.00 0.21 0.00 76 1019.6
20260506151902 49 254 3.0 14.0 0.00 0.21 0.00 77 1019.6
20260506151856 49 250 3.0 14.0 0.00 0.21 0.00 77 1019.6
20260506150854 49 278 3.0 11.0 0.00 0.21 0.00 77 1019.6
20260506150401 49 233 2.0 11.0 0.00 0.21 0.00 77 1019.6
20260506150356 49 269 3.0 11.0 0.00 0.21 0.00 77 1019.6
20260506145356 49 229 2.0 8.0 0.00 0.21 0.00 76 1019.5
20260506144854 49 235 2.0 10.0 0.00 0.21 0.00 75 1019.5
20260506144356 49 190 2.0 10.0 0.00 0.21 0.00 74 1019.5
20260506143858 49 247 2.0 11.0 0.00 0.21 0.00 74 1019.5
20260506143354 49 238 2.0 11.0 0.00 0.21 0.00 74 1019.4
20260506142854 49 245 2.0 11.0 0.00 0.21 0.00 74 1019.4
20260506142354 50 243 2.0 11.0 0.00 0.21 0.00 74 1019.5
20260506141855 50 260 2.0 8.0 0.00 0.21 0.00 74 1019.4
20260506141355 50 268 3.0 8.0 0.00 0.21 0.00 73 1019.4
20260506140856 50 338 3.0 10.0 0.00 0.21 0.00 74 1019.4
20260506140356 50 244 3.0 11.0 0.00 0.21 0.00 74 1019.5
20260506135854 50 229 4.0 11.0 0.00 0.21 0.21 74 1019.4
20260506135400 50 244 4.0 12.0 0.00 0.21 0.21 74 1019.2
20260506135354 50 218 4.0 12.0 0.00 0.21 0.21 73 1019.4
20260506134358 50 231 3.0 11.0 0.00 0.21 0.21 75 1019.2
20260506134352 50 256 4.0 12.0 0.00 0.21 0.21 74 1019.3
20260506133352 50 190 3.0 12.0 0.00 0.21 0.21 75 1019.0
20260506132853 51 283 4.0 12.0 0.00 0.21 0.21 76 1019.1
20260506132351 50 195 3.0 11.0 0.00 0.21 0.21 76 1019.1
20260506131852 50 247 3.0 10.0 0.00 0.21 0.21 76 1019.2
20260506131352 51 246 3.0 10.0 0.00 0.21 0.21 75 1019.3
20260506130853 51 245 4.0 12.0 0.00 0.21 0.21 74 1019.1
20260506130352 51 289 3.0 12.0 0.00 0.21 0.21 74 1019.1
20260506125853 51 212 3.0 16.0 0.00 0.21 0.21 73 1019.1
20260506125349 51 249 3.0 19.0 0.00 0.21 0.21 74 1019.1
20260506124849 51 67 3.0 19.0 0.00 0.21 0.21 74 1019.0
20260506124355 52 267 4.0 17.0 0.00 0.21 0.21 76 1019.1
20260506124349 52 180 4.0 15.0 0.00 0.21 0.21 75 1019.0
20260506123350 52 207 4.0 17.0 0.00 0.21 0.21 77 1019.0
20260506122853 52 202 3.0 16.0 0.00 0.21 0.21 80 1018.9
20260506122848 52 239 4.0 16.0 0.00 0.21 0.21 79 1019.1
20260506121850 52 239 3.0 13.0 0.00 0.21 0.21 81 1018.8
20260506121347 52 247 3.0 11.0 0.00 0.21 0.21 82 1018.8
20260506120848 52 254 2.0 12.0 0.00 0.21 0.21 82 1018.8
20260506120350 52 267 2.0 12.0 0.00 0.21 0.21 83 1018.8
20260506115848 52 256 2.0 12.0 0.00 0.21 0.21 83 1018.8
20260506115349 52 214 2.0 12.0 0.01 0.21 0.21 84 1018.8
20260506114849 52 197 2.0 11.0 0.01 0.21 0.21 84 1018.8
20260506114347 52 204 2.0 11.0 0.01 0.21 0.21 85 1018.7
20260506113849 52 256 2.0 9.0 0.01 0.21 0.21 85 1018.6
20260506113349 52 244 2.0 11.0 0.01 0.21 0.21 85 1018.5
20260506112848 52 266 2.0 11.0 0.01 0.21 0.21 85 1018.5
20260506112349 52 249 2.0 15.0 0.01 0.21 0.21 85 1018.4
20260506111846 52 281 3.0 15.0 0.01 0.21 0.21 86 1018.3
20260506111345 52 314 3.0 14.0 0.01 0.21 0.21 86 1018.3
20260506110845 52 251 3.0 15.0 0.01 0.21 0.21 87 1018.2
20260506110347 52 211 3.0 17.0 0.01 0.21 0.21 87 1018.3
20260506105847 52 247 3.0 17.0 0.01 0.21 0.21 87 1018.2
20260506105345 52 247 4.0 14.0 0.00 0.20 0.20 88 1018.2
20260506104845 52 208 4.0 12.0 0.01 0.20 0.20 88 1018.1
20260506104346 53 247 3.0 11.0 0.02 0.20 0.20 89 1018.0
20260506103845 53 248 3.0 11.0 0.02 0.20 0.20 89 1018.0
20260506103347 53 220 4.0 18.0 0.02 0.20 0.20 89 1018.0
20260506102847 53 263 4.0 18.0 0.02 0.20 0.20 89 1017.8
20260506102347 54 242 3.0 14.0 0.02 0.20 0.20 89 1017.7
20260506101845 54 226 3.0 12.0 0.02 0.20 0.20 90 1017.6
20260506101351 54 271 3.0 15.0 0.03 0.20 0.20 89 1017.5
20260506101347 54 244 3.0 15.0 0.03 0.20 0.20 90 1017.5
20260506100347 54 240 3.0 12.0 0.03 0.20 0.20 89 1017.3
20260506095845 54 231 3.0 10.0 0.03 0.20 0.20 89 1017.2
20260506095345 55 164 2.0 10.0 0.03 0.20 0.20 89 1017.1
20260506094847 55 263 2.0 11.0 0.02 0.20 0.20 88 1017.0
20260506094346 55 230 3.0 21.0 0.02 0.19 0.20 88 1017.1
20260506093845 56 278 3.0 21.0 0.02 0.19 0.19 88 1017.1
20260506093347 56 226 3.0 11.0 0.01 0.18 0.18 87 1017.0
20260506092846 56 255 4.0 13.0 0.01 0.18 0.18 88 1016.6
20260506092347 57 246 4.0 25.0 0.01 0.18 0.18 87 1016.3
20260506091845 58 263 3.0 25.0 0.01 0.18 0.18 87 1016.2
20260506091345 58 289 4.0 13.0 0.01 0.17 0.17 88 1016.1
20260506090846 58 303 6.0 13.0 0.02 0.17 0.17 88 1015.9
20260506090842 58 352 5.0 10.0 0.06 0.17 0.17 88 1015.8
20260506085839 58 319 5.0 12.0 0.11 0.17 0.17 88 1015.8
20260506085339 58 336 3.0 12.0 0.17 0.17 0.17 88 1015.7
20260506084845 58 336 4.0 9.0 0.17 0.17 0.17 88 1015.7
20260506084841 58 330 3.0 9.0 0.17 0.17 0.17 88 1015.7
20260506083840 58 306 4.0 9.0 0.17 0.17 0.17 87 1015.7
20260506083338 58 323 3.0 9.0 0.17 0.17 0.17 87 1015.8
20260506082844 58 323 5.0 12.0 0.17 0.17 0.17 86 1015.9
20260506082839 58 312 4.0 9.0 0.17 0.17 0.17 87 1015.9
20260506081838 58 336 5.0 12.0 0.17 0.17 0.17 85 1016.0
20260506081343 59 290 5.0 15.0 0.15 0.15 0.16 81 1016.0
20260506081337 59 304 6.0 12.0 0.17 0.17 0.17 84 1016.0
20260506080340 62 278 3.0 11.0 0.06 0.06 0.06 75 1015.9
20260506080335 60 293 2.0 15.0 0.11 0.11 0.11 77 1016.2
20260506073327 62 307 5.0 11.0 0.00 0.00 0.00 69 1015.0
20260506072828 62 337 4.0 15.0 0.00 0.00 0.00 67 1015.1
20260506072332 63 330 5.0 12.0 0.00 0.00 0.00 64 1015.0
20260506072326 63 285 3.0 15.0 0.00 0.00 0.00 64 1015.1
20260506071956 63 335 5.0 12.0 0.00 0.00 0.00 63 1014.9
20260506070824 63 9 5.0 15.0 0.00 0.00 0.00 62 1014.9
20260506070326 63 359 5.0 15.0 0.00 0.00 0.00 61 1014.9
20260506062325 64 318 7.0 17.0 0.00 0.00 0.00 59 1015.4
20260506061823 64 352 7.0 17.0 0.00 0.00 0.00 59 1015.4
20260506061332 64 331 7.0 16.0 0.00 0.00 0.00 58 1015.4
20260506061324 64 342 6.0 15.0 0.00 0.00 0.00 59 1015.4
20260506060330 65 355 6.0 17.0 0.00 0.00 0.00 57 1015.5
20260506060324 65 324 6.0 16.0 0.00 0.00 0.00 57 1015.3
20260506051323 65 338 5.0 12.0 0.00 0.00 0.00 56 1016.0
20260506050825 66 331 5.0 10.0 0.00 0.00 0.00 54 1016.1
20260506050821 65 324 5.0 10.0 0.00 0.00 0.00 55 1016.1
20260506044823 66 346 5.0 13.0 0.00 0.00 0.00 54 1016.5
20260506044328 66 314 6.0 16.0 0.00 0.00 0.00 54 1016.7
20260506044322 66 308 6.0 14.0 0.00 0.00 0.00 54 1016.6
20260506043821 66 290 7.0 14.0 0.00 0.00 0.00 54 1016.6
20260506042820 65 3 5.0 16.0 0.00 0.00 0.00 54 1016.7
20260506042318 65 347 5.0 16.0 0.00 0.00 0.00 55 1016.8
20260506041819 65 337 6.0 16.0 0.00 0.00 0.00 54 1016.9
20260506041318 65 301 5.0 14.0 0.00 0.00 0.00 54 1016.9
20260506040824 65 312 5.0 13.0 0.00 0.00 0.00 55 1017.1
20260506040818 65 333 5.0 14.0 0.00 0.00 0.00 54 1016.8
20260506040318 65 329 4.0 13.0 0.00 0.00 0.00 55 1017.0
20260506035316 65 285 4.0 13.0 0.00 0.00 0.00 55 1017.2
20260506034818 65 317 5.0 18.0 0.00 0.00 0.00 56 1017.4
20260506034318 65 314 6.0 18.0 0.00 0.00 0.00 55 1017.4
20260506033822 64 324 6.0 17.0 0.00 0.00 0.00 56 1017.5
20260506033817 65 320 5.0 15.0 0.00 0.00 0.00 54 1017.6
20260506033316 65 304 6.0 17.0 0.00 0.00 0.00 56 1017.6
20260506032325 64 285 4.0 14.0 0.00 0.00 0.00 57 1017.7
20260506032319 64 292 6.0 14.0 0.00 0.00 0.00 57 1017.6
20260506031319 64 333 4.0 11.0 0.00 0.00 0.00 57 1017.8
20260506030818 64 359 4.0 9.0 0.00 0.00 0.00 57 1017.9
20260506030322 64 327 3.0 10.0 0.00 0.00 0.00 58 1018.1
20260506030316 64 296 4.0 10.0 0.00 0.00 0.00 58 1018.0
20260506025316 63 334 3.0 7.0 0.00 0.00 0.00 58 1018.2
20260506024825 63 0 5.0 11.0 0.00 0.00 0.00 57 1018.4
20260506024819 63 335 4.0 11.0 0.00 0.00 0.00 58 1018.3
20260506023822 64 4 3.0 11.0 0.00 0.00 0.00 57 1018.6
20260506023816 64 349 4.0 11.0 0.00 0.00 0.00 57 1018.6
20260506022816 64 351 4.0 12.0 0.00 0.00 0.00 56 1018.8
20260506022322 64 283 5.0 11.0 0.00 0.00 0.00 58 1019.0
20260506022316 64 336 5.0 12.0 0.00 0.00 0.00 56 1018.9
20260506021316 63 299 5.0 10.0 0.00 0.00 0.00 58 1019.1
20260506020816 63 301 5.0 10.0 0.00 0.00 0.00 59 1019.2
20260506020318 63 331 4.0 10.0 0.00 0.00 0.00 59 1019.2
20260506015815 62 316 4.0 10.0 0.00 0.00 0.00 60 1019.4
20260506015317 62 301 5.0 11.0 0.00 0.00 0.00 60 1019.6
20260506014822 62 301 4.0 11.0 0.00 0.00 0.00 60 1019.8
20260506014816 62 306 5.0 11.0 0.00 0.00 0.00 60 1019.7
20260506013817 62 318 3.0 9.0 0.00 0.00 0.00 60 1019.9
20260506013314 62 309 3.0 10.0 0.00 0.00 0.00 60 1020.0
20260506012812 62 337 3.0 10.0 0.00 0.00 0.00 59 1020.1
20260506012311 62 4 3.0 11.0 0.00 0.00 0.00 61 1020.1
20260506011809 62 287 5.0 12.0 0.00 0.00 0.00 60 1020.2
20260506011310 62 287 5.0 12.0 0.00 0.00 0.00 62 1020.2
20260506010811 61 331 5.0 11.0 0.00 0.00 0.00 62 1020.2
20260506010309 61 337 5.0 11.0 0.00 0.00 0.00 63 1020.3
20260506005810 61 328 5.0 11.0 0.00 0.00 0.00 63 1020.4
20260506005310 61 298 4.0 11.0 0.00 0.00 0.00 62 1020.5
20260506004806 61 301 4.0 9.0 0.00 0.00 0.00 62 1020.5
20260506004305 61 341 4.0 9.0 0.00 0.00 0.00 63 1020.6
20260506003809 61 308 4.0 10.0 0.00 0.00 0.00 63 1020.6
20260506003805 61 297 5.0 11.0 0.00 0.00 0.00 63 1020.7
20260506002800 61 308 5.0 11.0 0.00 0.00 0.00 62 1020.8
20260506002259 61 303 5.0 10.0 0.00 0.00 0.00 62 1020.8
20260506001758 61 303 3.0 10.0 0.00 0.00 0.00 62 1020.9
20260506001300 61 306 4.0 8.0 0.00 0.00 0.00 62 1020.9
20260506000759 60 297 5.0 10.0 0.00 0.00 0.00 62 1020.9
20260506000303 60 300 4.0 9.0 0.00 0.00 0.00 62 1020.9
20260506000257 60 330 5.0 10.0 0.00 0.00 0.00 61 1021.0
20260505235255 60 304 4.0 9.0 0.00 0.00 0.00 62 1021.0
20260505234755 60 305 5.0 10.0 0.00 0.00 0.00 62 1021.0
20260505234255 60 303 5.0 11.0 0.00 0.00 0.00 62 1021.0
20260505233756 60 326 4.0 11.0 0.00 0.00 0.00 62 1021.0
20260505233257 60 327 3.0 10.0 0.00 0.00 0.00 62 1021.1
20260505232755 60 311 4.0 10.0 0.00 0.00 0.00 62 1021.1
20260505232301 60 311 4.0 12.0 0.00 0.00 0.00 63 1021.2
20260505232255 60 313 5.0 12.0 0.00 0.00 0.00 63 1021.2
20260505231256 60 347 3.0 9.0 0.00 0.00 0.00 63 1021.2
20260505230754 60 327 2.0 8.0 0.00 0.00 0.00 63 1021.3
20260505230255 60 308 2.0 7.0 0.00 0.00 0.00 64 1021.3
20260505225755 60 310 1.0 7.0 0.00 0.00 0.00 64 1021.3
20260505225254 60 310 2.0 7.0 0.00 0.00 0.00 65 1021.4
20260505224754 59 314 2.0 7.0 0.00 0.00 0.00 64 1021.4
20260505224253 59 322 3.0 9.0 0.00 0.00 0.00 65 1021.4
20260505223754 59 310 4.0 9.0 0.00 0.00 0.00 65 1021.4
20260505223251 59 326 3.0 8.0 0.00 0.00 0.00 65 1021.4
20260505222803 59 329 3.0 10.0 0.00 0.00 0.00 65 1021.4
20260505222752 59 338 3.0 6.0 0.00 0.00 0.00 65 1021.4
20260505222255 59 322 3.0 10.0 0.00 0.00 0.00 65 1021.4
20260505221252 59 309 3.0 10.0 0.00 0.00 0.00 65 1021.4
20260505220752 59 297 3.0 9.0 0.00 0.00 0.00 65 1021.5
20260505220251 59 314 3.0 7.0 0.00 0.00 0.00 66 1021.5
20260505215753 59 340 3.0 7.0 0.00 0.00 0.00 65 1021.5
20260505215252 59 307 3.0 8.0 0.00 0.00 0.00 66 1021.4
20260505214749 59 300 3.0 8.0 0.00 0.00 0.00 66 1021.4
20260505214249 59 317 3.0 7.0 0.00 0.00 0.00 66 1021.4
20260505213748 59 315 2.0 9.0 0.00 0.00 0.00 65 1021.4
20260505213248 59 300 3.0 9.0 0.00 0.00 0.00 65 1021.4
20260505212749 59 306 2.0 8.0 0.00 0.00 0.00 65 1021.3
20260505212245 59 310 2.0 7.0 0.00 0.00 0.00 65 1021.4
20260505211747 59 310 2.0 7.0 0.00 0.00 0.00 65 1021.3
20260505211246 59 305 3.0 8.0 0.00 0.00 0.00 65 1021.3
20260505210747 59 302 3.0 8.0 0.00 0.00 0.00 66 1021.4
20260505210247 59 314 3.0 10.0 0.00 0.00 0.00 66 1021.3
20260505205746 59 308 3.0 10.0 0.00 0.00 0.00 66 1021.3
20260505205245 59 306 3.0 8.0 0.00 0.00 0.00 66 1021.4
20260505204745 59 310 3.0 9.0 0.00 0.00 0.00 66 1021.4
20260505204245 59 311 3.0 9.0 0.00 0.00 0.00 66 1021.4
20260505203749 59 310 3.0 9.0 0.00 0.00 0.00 66 1021.4
20260505203743 59 316 3.0 8.0 0.00 0.00 0.00 66 1021.4
20260505202745 59 316 2.0 9.0 0.00 0.00 0.00 66 1021.5
20260505202243 59 314 2.0 5.0 0.00 0.00 0.00 66 1021.4
20260505201743 59 316 2.0 5.0 0.00 0.00 0.00 66 1021.5
20260505201241 59 311 3.0 5.0 0.00 0.00 0.00 66 1021.4
20260505200749 59 309 1.0 5.0 0.00 0.00 0.00 66 1021.4
20260505200741 59 320 2.0 5.0 0.00 0.00 0.00 66 1021.4
20260505195741 59 308 1.0 5.0 0.00 0.00 0.00 66 1021.4
20260505195241 59 308 2.0 5.0 0.00 0.00 0.00 66 1021.4
20260505194750 59 317 3.0 8.0 0.00 0.00 0.00 66 1021.4
20260505194743 59 308 2.0 5.0 0.00 0.00 0.00 66 1021.4
20260505193741 59 312 2.0 8.0 0.00 0.00 0.00 66 1021.4
20260505193242 59 315 2.0 5.0 0.00 0.00 0.00 66 1021.4
20260505192741 59 316 2.0 5.0 0.00 0.00 0.00 66 1021.4
20260505192241 59 315 1.0 4.0 0.00 0.00 0.00 66 1021.4
20260505191743 59 314 2.0 4.0 0.00 0.00 0.00 66 1021.5
20260505191249 59 314 2.0 5.0 0.00 0.00 0.00 66 1021.4
20260505191241 59 314 2.0 5.0 0.00 0.00 0.00 66 1021.4
20260505190910 59 316 1.0 4.0 0.00 0.00 0.00 67 1021.5